星链-5442 (STARLINK-5442 )

导读 | 星芒AI

STARLINK-5442 是 SpaceX Starlink 卫星互联网项目中的一颗低轨卫星,属于第二代星链星座的一部分。该卫星由 SpaceX 研发并发射,旨在为全球用户提供高速、低延迟的互联网服务。它运行在约 550 公里的轨道高度,配备先进通信设备,支持宽带数据传输。作为 Starlink 网络的重要节点,STARLINK-5442 有助于扩大覆盖范围,提升网络性能,特别是在偏远和网络基础设施薄弱的地区。其部署是 SpaceX 打造全球无缝互联网连接战略的关键一环。

基本信息
目录编号:
54784
目录名称:
STARLINK-5442
国际标识:
2022-175AC
轨道中心:
EARTH
卫星名称:
星链-5442
卫星全名:
星链-5442 (STARLINK-5442 )
卫星状态:
在轨 (已飞行1053 天)
发射日期:
2022-12-17 UTC
国别 :
美国 (US)
星等 :
--
轨道信息
数据来源 国际轨道数据 AOE轨道数据
星历时间 2025-11-04T10:33:18+0800
14小时前
查看轨道信息
2025-11-04T20:00:00+0800
4小时前
查看轨道信息
半长轴 6917.886km 6917.864km
偏心率 0.0001383 0.0003143
轨道倾角 53.217° 53.198°
近地点辐角 88.699° 80.338°
升交点赤经 247.645° 245.878°
平近点角 271.416° 258.573°
近地点 538.794km 537.554km
远地点 540.708km 541.904km
周期 95.438分钟 95.437分钟
每日圈数 15.088384 15.088454
详细信息
固有亮度:
5
最大亮度:
2.5
卫星平台:
Starlink v1.5
覆盖范围:
全球
运营商:
太空探索技术公司
运营商所在国:
美国
制造商(研发单位):
太空探索技术公司
制造商所在国:
美国
使用方式:
暂无
卫星简介
星链(Starlink)计划是由太空探索技术公司(SpaceX)提出的一个巨型低轨卫星互联网星座项目,计划在2019年至2024年间在太空搭建由约1.2万颗卫星组成的“星链”网络,其中1584颗将部署在地球上空550千米处的近地轨道,并从2020年开始工作。该卫星仍在工作。
2D轨道图
3D轨道图
轨道高度分析图
轨道倾角分析图
轨道综合分析图
查看轨道综合分析图